Flag for Afghanistan

Past Weather in Jalalabad, Afghanistan — Yesterday and Last 2 Weeks

Now
86 °F

Thundershowers. Partly cloudy.


Feels Like: 86 °F
Forecast: 102 / 78 °F
Wind: 21 mph from Northeast

Location: Peshawar Airport

Current Time: Jul 9, 2020 at 3:17:06 am

Latest Report: Jul 9, 2020 at 2:30 am


Visibility: 2 mi

Pressure: 29.59 "Hg (27.74 "Hg at 572m altitude)

Humidity: 43%

Dew Point: 61 °F

Location of JalalabadLocation

Past Weather in Jalalabad — Graph

°F

Jalalabad Temperature Yesterday

Maximum temperature yesterday: 102 °F (at 2:30 pm)
Minimum temperature yesterday: 84 °F (at 3:30 am)
Average temperature yesterday: 92 °F

High & Low Weather Summary for the Past Weeks

 TemperatureHumidityPressure
High111 °F (Jul 3, 2:30 pm)79% (Jun 24, 6:30 am)29.74 "Hg (Jun 24, 6:30 am)
Low75 °F (Jul 5, 4:30 am)10% (Jul 1, 11:30 am)29.42 "Hg (Jun 27, 4:30 pm)
Average92 °F45%29.56 "Hg
* Reported Jun 24 1:30 am — Jul 9 1:30 am, Jalalabad. Weather by CustomWeather, © 2020

Note: Actual official high and low records may vary slightly from our data, if they occured in-between our weather recording intervals... More about our weather records

Jalalabad Weather History for the Previous 24 Hours

Scroll right to see more
 ConditionsComfort  
Time TempWeatherWind HumidityBarometerVisibility
1:30 am
Thu, Jul 9
88 °FThundershowers. Partly cloudy.18 mph40%29.56 "Hg2 mi
12:30 am91 °FThunderstorms. Passing clouds.12 mph38%29.53 "Hg2 mi
11:30 pm
Wed, Jul 8
93 °FThundershowers. Passing clouds.12 mph36%29.53 "Hg2 mi
10:30 pm93 °FThundershowers. Passing clouds.12 mph30%29.53 "Hg2 mi
9:30 pm95 °FThundershowers. Partly cloudy.12 mph36%29.53 "Hg2 mi
8:30 pm95 °FThundershowers. Partly cloudy.16 mph36%29.53 "Hg2 mi
7:30 pm97 °FThundershowers. Partly cloudy.16 mph37%29.53 "Hg2 mi
6:30 pm97 °FBroken clouds.12 mph37%N/A3 mi
5:30 pm99 °FScattered clouds.12 mphN/AN/A4 mi
4:30 pm100 °FScattered clouds.12 mph35%N/A4 mi
2:30 pm102 °FHaze.12 mph31%29.53 "Hg4 mi
1:30 pm100 °FHaze.12 mph35%29.56 "Hg4 mi
12:30 pm99 °FHaze.12 mph37%29.59 "Hg4 mi
11:30 am97 °FHaze.14 mph42%29.62 "Hg4 mi
10:30 am95 °FSunny.16 mph44%29.65 "Hg4 mi
9:30 am93 °FSunny.16 mph47%29.65 "Hg4 mi
8:30 am90 °FHaze.12 mph49%29.68 "Hg4 mi
7:30 am90 °FHaze.12 mph52%29.71 "Hg2 mi
7:00 am86 °FHaze.12 mph59%29.68 "Hg2 mi
6:30 am86 °FHaze.12 mph59%29.68 "Hg2 mi
5:30 am84 °FHaze.7 mph55%29.65 "Hg2 mi
4:00 am84 °FPassing clouds.12 mph45%29.62 "Hg2 mi
3:30 am84 °FPassing clouds.12 mph45%29.62 "Hg2 mi
3:00 am86 °FHaze.5 mph43%29.62 "Hg2 mi
Weather by CustomWeather, © 2020

See weather overview